Home > Weather > Rust > Past weeks

Flag for Austria Weather for the Past 2 Weeks in Rust, Burgenland, Austria

Now
59 °F

Refreshingly cool.


Feels Like: 58 °F
Forecast: 48 / 54 °F
Wind: 8 mph from Northwest

Location: Eisenstadt

Current Time: May 3, 2016 at 1:33:01 PM

Latest Report: May 3, 2016 at 12:00 PM


Visibility: N/A

Pressure: 29.94 "Hg

Humidity: 60%

Dew Point: 45 °F

Location of RustLocation

Historic Weather in Rust — Graph

°F

Rust Temperature Yesterday

Maximum temperature yesterday: 64 °F (at 4:00 PM)
Minimum temperature yesterday: 51 °F (at 3:00 AM)
Average temperature yesterday: 55 °F

High & Low Weather Summary for the Past Weeks

 TemperatureHumidityPressure
High68 °F (Apr 22, 5:00 PM)93% (May 2, 12:00 AM)30.39 "Hg (May 2, 12:00 AM)
Low33 °F (Apr 26, 4:00 AM)28% (Apr 20, 5:00 PM)29.59 "Hg (Apr 23, 11:00 PM)
Average53 °F61%29.97 "Hg
* Reported Apr 18 2:00 PM — May 3 11:00 AM, Rust, Weather by CustomWeather, © 2016

Note: Actual official high and low records may vary slightly from our data, if they occured in-between our weather recording intervals... More about our weather records

Advertising

Rust Weather History for the Previous 24 Hours

Scroll right to see more
 ConditionsComfort  
Time TempWeatherWind HumidityBarometerVisibility
11:00 AM
Tue, May 3
58 °FPartly sunny.8 mph64%29.95 "Hg6 mi
9:00 AM56 °FCool.6 mph68%29.97 "HgN/A
8:00 AM54 °FPartly sunny.6 mph73%29.96 "Hg9 mi
7:00 AM53 °FPartly sunny.6 mph72%29.96 "Hg9 mi
6:00 AM53 °FOvercast.5 mph71%29.97 "Hg9 mi
3:00 AM54 °FCool.7 mph73%29.97 "HgN/A
2:00 AM55 °FCool.7 mph73%29.98 "HgN/A
1:00 AM55 °FCool.6 mph75%29.99 "HgN/A
12:00 AM55 °FCool.6 mph76%30.00 "HgN/A
11:00 PM
Mon, May 2
55 °FPassing clouds.5 mph76%30.00 "Hg9 mi
10:00 PM56 °FCool.8 mph80%29.99 "HgN/A
9:00 PM55 °FCool.9 mph81%29.98 "HgN/A
8:00 PM55 °FOvercast.6 mph82%29.99 "Hg7 mi
7:00 PM54 °FLight rain. Overcast.8 mph86%29.99 "Hg5 mi
6:00 PM55 °FCool.1 mph90%30.01 "HgN/A
5:00 PM55 °FLight rain. Overcast.6 mph84%30.01 "Hg5 mi
4:00 PM64 °FMild.6 mph60%29.98 "HgN/A
3:00 PM62 °FMild.5 mph65%30.01 "HgN/A
2:00 PM59 °FPartly sunny.5 mph70%30.03 "Hg5 mi
1:00 PM57 °FCool.3 mph73%30.04 "HgN/A
Weather by CustomWeather, © 2016

See weather overviewHow to use our weather pages